Regional Weather Roundup
Issued by NWS

Home | Current Version | Previous Version | Graphics & Text | Print | Product List | Glossary On
Versions: 1 2 3 4 5 6 7 8 9 10 11 12 13 14 15 16 17 18 19 20 21 22 23 24 25 26 27 28 29 30 31 32 33 34 35 36 37 38 39 40 41 42 43 44 45 46 47 48 49 50
976
ASUS45 KBOU 031407
RWRCO

WEATHER ROUNDUP FOR COLORADO
NATIONAL WEATHER SERVICE DENVER/BOULDER CO
800 AM MDT TUE MAY 03 2016

NOTE: "FAIR" INDICATES FEW OR NO CLOUDS BELOW 12000 FEET WITH NO
SIGNIFICANT WEATHER AND/OR OBSTRUCTIONS TO VISIBILITY.

COZ001>005-013-030-031-031500-
...NORTHWEST COLORADO...

CITY           SKY/WX    TMP DP  RH WIND       PRES   REMARKS
CRAIG          FAIR      33  27  78 CALM      30.30R
HAYDEN         FAIR      37  23  56 E9        30.29R
MEEKER         FAIR      37  27  67 CALM      30.29R
MOUNT WERNER   NOT AVBL
STEAMBOAT SPGS FAIR      34  24  68 CALM      30.30R
WALDEN         FAIR      32  23  69 CALM      30.33R
$$

COZ006>008-011-031500-
...WEST CENTRAL VALLEYS...

CITY           SKY/WX    TMP DP  RH WIND       PRES   REMARKS
GRAND JUNCTION FAIR      46  35  65 SE5       30.23R
MONTROSE       FAIR      44  32  62 SE7       30.28R
EAGLE          SUNNY     36  27  69 CALM      30.33R
RIFLE          FAIR      40  32  73 CALM      30.27R
DELTA          NOT AVBL
NUCLA          NOT AVBL
$$

COZ017>023-064>068-031500-
...SOUTHWEST COLORADO...

CITY           SKY/WX    TMP DP  RH WIND       PRES   REMARKS
DURANGO        FAIR      37  31  78 NE3       30.24R
CORTEZ         FAIR      39  33  79 SE5       30.23R
PAGOSA SPRINGS FAIR      38  30  72 CALM      30.26S
TELLURIDE      NOT AVBL
WOLF CREEK PAS FAIR      28  18  64 N6        30.39R WCI  22
$$

COZ009-010-012-014-032>034-037-058>063-031500-
...CENTRAL COLORADO...

CITY           SKY/WX    TMP DP  RH WIND       PRES   REMARKS
ASPEN          FAIR      37  23  56 SE5       30.29R
BUENA VISTA    FAIR      41  22  47 E3        30.28R
COPPER MTN     NOT AVBL
BERTHOUD PASS  FAIR      18   9  68 N10       30.36R WCI   6
COTTONWOOD PAS FAIR      37  14  38 NW3       30.31S
GUNNISON       FAIR      32  27  80 E3        30.33R
KREMMLING      FAIR      32  25  74 CALM      30.34R
LEADVILLE      FAIR      31  17  56 NW5       30.31R WCI  26
MONARCH PASS   FAIR      27  14  59 MISG      30.46R
SALIDA         FAIR      38  30  71 CALM      30.36R
SUNLIGHT       FAIR      32  21  64 NE5         N/A  WCI  27
WILKERSON PASS FAIR      30  18  59 NE6G16    30.36R WCI  24
$$

COZ069>075-031500-
...SAN LUIS VALLEY/SANGRE DE CRISTO MOUNTAINS...

CITY           SKY/WX    TMP DP  RH WIND       PRES   REMARKS
ALAMOSA        FAIR      38  34  85 CALM      30.25R
LA VETA PASS   PTSUNNY   32  27  80 NE10G16   30.32R WCI  24
SAGUACHE       FAIR      41  30  65 NW13      30.26S
$$

COZ035-036-038>040-031500-
...NORTHERN COLORADO FRONT RANGE...

CITY           SKY/WX    TMP DP  RH WIND       PRES   REMARKS
DENVER INTL AP FAIR      48  31  51 W12       30.21R
DMNS CITY PARK   N/A     50  29  44 SW1G7     30.21S
AURORA         FAIR      47  31  53 W7        30.23R
FRONT RANGE AP MOSUNNY   46  32  57 W9        30.22R
ERIE MUNI ARPT FAIR      49  32  50 CALM      30.22R
BOULDER MUN AP FAIR      52  28  40 CALM      30.21S
CENTENNIAL     FAIR      47  28  47 W9        30.22R
BROOMFIELD     MOSUNNY   52  27  37 NW10      30.23R
FORT COLLINS   FAIR      52  36  54 N8        30.21S
LONGMONT       FAIR      55  33  43 W7        30.22S
$$

COZ041-046-047-076>085-087-088-031500-
...PIKES PEAK/PALMER DIVIDE AND SOUTHERN FOOTHILLS...

CITY           SKY/WX    TMP DP  RH WIND       PRES   REMARKS
COLO. SPRINGS  FAIR      48  26  42 NW14      30.24R
A. F. ACADEMY  FAIR      46  27  46 N14       30.23R
SCHRIEVER AFB  NOT AVBL
ELLICOTT       FAIR     N/A N/A N/A N10       30.20R
FALCON         FAIR      46  26  46 N15G22    30.24R
FORT CARSON    FAIR      51  28  41 N15       30.22R
LIMON          FAIR      46  33  60 NW24G30   30.17R
MONUMENT HILL  FAIR      37  28  70 NW9       30.25S
TRINIDAD       CLOUDY    43  35  73 W10       30.23R
$$

COZ042>045-048>051-090-091-031500-
...NORTHEAST COLORADO...

CITY           SKY/WX    TMP DP  RH WIND       PRES   REMARKS
GREELEY ARPT   FAIR      52  34  50 NW17      30.19S
AKRON          FAIR      46  35  65 N18       30.15R
BURLINGTON     FAIR      50  36  58 NW16G24   30.11R
WRAY           NOT AVBL
STERLING       FAIR      48  37  66 N13       30.14R
HOLYOKE        NOT AVBL
FORT MORGAN    FAIR      51  34  53 N14       30.18R
$$

COZ086-089-092>099-031500-
...SOUTHEAST COLORADO...

CITY           SKY/WX    TMP DP  RH WIND       PRES   REMARKS
PUEBLO         FAIR      53  33  46 NW10      30.20R
LA JUNTA       FAIR      53  35  50 NW6       30.16R
LAMAR          CLOUDY    51  38  60 NW3       30.11R
SPRINGFIELD      N/A     53  36  52 NW15      30.12S
$$




USA.gov is the U.S. government's official web portal to all federal, state and local government web resources and services.